View from above orbital plane
|
View from above satellite
|
Ground track
|
The orbit data is extracted from the following two-line orbital elements,
1 40900U 15049B 19341.58571615 .00001656 00000-0 72597-4 0 9990
2 40900 97.4362 349.2778 0011475 306.5441 169.8406 15.23363588233823
Epoch (UTC): | 07 December 2019 14:03:25 |
Eccentricity: | 0.0011475 |
inclination: | 97.4362° |
perigee height: | 488 km |
apogee height: | 503 km |
right ascension of ascending node: | 349.2778° |
argument of perigee: | 306.5441° |
revolutions per day: | 15.23363588 |
mean anomaly at epoch: | 169.8406° |
orbit number at epoch: | 23382 |
The dashed part of the orbit path shows where the satellite is in the earth's shadow,
|
|